FW9423 Weather Reports


Display with metric or nautical units.
time (UTC)temp
F
wind
direction
speed
MPH
gust
MPH
rain 1hr
in
rain 24hr
in
rain mn
in
humidity
%
barometer
mb
20260503044548 67 360 5.0 12.0 0.00 0.00 0.00 48 1021.6
20260503044039 66 360 6.0 14.0 0.00 0.00 0.00 50 1021.7
20260503043543 65 360 6.0 14.0 0.00 0.00 0.00 50 1021.7
20260503043054 65 360 5.0 12.0 0.00 0.00 0.00 50 1021.8
20260503042542 65 360 5.0 14.0 0.00 0.00 0.00 50 1021.8
20260503042044 66 360 6.0 14.0 0.00 0.00 0.00 50 1021.9
20260503041554 66 360 5.0 12.0 0.00 0.00 0.00 50 1022.0
20260503041042 65 360 5.0 12.0 0.00 0.00 0.00 50 1022.1
20260503040542 65 360 6.0 12.0 0.00 0.00 0.00 49 1022.2
20260503040103 66 360 6.0 10.0 0.00 0.00 0.00 50 1022.2
20260503035543 66 360 4.0 10.0 0.00 0.00 0.00 51 1022.2
20260503035043 66 360 5.0 12.0 0.00 0.00 0.00 51 1022.2
20260503034559 65 360 4.0 12.0 0.00 0.00 0.00 52 1022.4
20260503034044 65 360 6.0 12.0 0.00 0.00 0.00 52 1022.5
20260503033542 65 360 4.0 15.0 0.00 0.00 0.00 51 1022.6
20260503033053 65 360 7.0 15.0 0.00 0.00 0.00 52 1022.6
20260503032542 64 360 4.0 14.0 0.00 0.00 0.00 54 1022.7
20260503032042 64 360 7.0 14.0 0.00 0.00 0.00 53 1022.9
20260503031550 64 360 4.0 12.0 0.00 0.00 0.00 53 1022.9
20260503031042 65 360 5.0 13.0 0.00 0.00 0.00 53 1023.1
20260503030540 64 360 4.0 13.0 0.00 0.00 0.00 53 1023.1
20260503030118 63 360 7.0 13.0 0.00 0.00 0.00 54 1023.1
20260503025543 64 360 5.0 12.0 0.00 0.00 0.00 53 1023.2
20260503025045 64 360 4.0 14.0 0.00 0.00 0.00 54 1023.2
20260503024549 64 360 6.0 14.0 0.00 0.00 0.00 53 1023.3
20260503024043 64 360 7.0 14.0 0.00 0.00 0.00 53 1023.3
20260503023544 63 360 4.0 12.0 0.00 0.00 0.00 56 1023.3
20260503023048 63 360 5.0 12.0 0.00 0.00 0.00 54 1023.5
20260503022540 63 360 5.0 9.0 0.00 0.00 0.00 55 1023.4
20260503022043 63 360 4.0 12.0 0.00 0.00 0.00 55 1023.5
20260503021546 62 360 4.0 13.0 0.00 0.00 0.00 56 1023.4
20260503021043 62 360 7.0 13.0 0.00 0.00 0.00 56 1023.5
20260503020543 62 360 7.0 13.0 0.00 0.00 0.00 56 1023.4
20260503020052 62 360 5.0 13.0 0.00 0.00 0.00 56 1023.5
20260503015543 62 360 7.0 13.0 0.00 0.00 0.00 57 1023.6
20260503015042 61 360 6.0 11.0 0.00 0.00 0.00 58 1023.5
20260503014602 61 360 3.0 10.0 0.00 0.00 0.00 58 1023.6
20260503014042 61 360 4.0 13.0 0.00 0.00 0.00 59 1023.6
20260503013542 60 360 6.0 13.0 0.00 0.00 0.00 59 1023.7
20260503013053 60 360 4.0 12.0 0.00 0.00 0.00 60 1023.6
20260503012546 60 360 5.0 12.0 0.00 0.00 0.00 60 1023.6
20260503012045 60 360 4.0 11.0 0.00 0.00 0.00 61 1023.6
20260503011555 59 360 6.0 11.0 0.00 0.00 0.00 61 1023.7
20260503011041 59 360 4.0 12.0 0.00 0.00 0.00 61 1023.7
20260503010541 59 360 5.0 12.0 0.00 0.00 0.00 61 1023.7
20260503010100 59 360 4.0 11.0 0.00 0.00 0.00 63 1023.7
20260503005546 58 360 3.0 11.0 0.00 0.00 0.00 63 1023.7
20260503005045 58 360 4.0 10.0 0.00 0.00 0.00 63 1023.7
20260503004550 58 360 4.0 11.0 0.00 0.00 0.00 64 1023.6
20260503004042 57 360 5.0 11.0 0.00 0.00 0.00 64 1023.6
20260503003542 57 360 2.0 10.0 0.00 0.00 0.00 65 1023.5
20260503003117 57 360 5.0 10.0 0.00 0.00 0.00 65 1023.4
20260503002543 57 360 4.0 8.0 0.00 0.00 0.00 66 1023.4
20260503002044 56 360 3.0 9.0 0.00 0.00 0.00 67 1023.4
20260503001545 56 360 4.0 9.0 0.00 0.00 0.00 67 1023.5
20260503001044 56 360 4.0 8.0 0.00 0.00 0.00 67 1023.5
20260503000543 55 360 3.0 8.0 0.00 0.00 0.00 68 1023.4
20260503000053 55 360 3.0 9.0 0.00 0.00 0.00 69 1023.3
20260502235544 55 360 3.0 9.0 0.00 0.00 0.00 70 1023.2
20260502235041 54 360 4.0 9.0 0.00 0.00 0.00 71 1023.1
20260502234548 54 360 4.0 6.0 0.00 0.00 0.00 71 1023.2
20260502234046 53 360 2.0 6.0 0.00 0.00 0.00 72 1023.2
20260502233542 53 360 3.0 8.0 0.00 0.00 0.00 73 1023.1
20260502233047 52 360 2.0 8.0 0.00 0.00 0.00 74 1023.1
20260502232543 51 360 0.0 8.0 0.00 0.00 0.00 74 1023.1
20260502232039 51 360 3.0 8.0 0.00 0.00 0.00 75 1022.9
20260502231551 50 360 2.0 5.0 0.00 0.00 0.00 76 1022.9
20260502231044 50 360 2.0 6.0 0.00 0.00 0.00 77 1022.8
20260502230546 49 360 3.0 6.0 0.00 0.00 0.00 77 1022.9
20260502230055 48 360 3.0 5.0 0.00 0.00 0.00 78 1022.7
20260502225542 48 360 2.0 5.0 0.00 0.00 0.00 78 1022.7
20260502225042 47 360 0.0 5.0 0.00 0.00 0.00 79 1022.7
20260502224551 47 0 0.0 2.0 0.00 0.00 0.00 80 1022.7
20260502224042 46 0 0.0 0.0 0.00 0.00 0.00 80 1022.5
20260502223545 46 0 0.0 0.0 0.00 0.00 0.00 81 1022.6
20260502223049 45 0 0.0 0.0 0.00 0.00 0.00 81 1022.4
20260502222542 45 0 0.0 0.0 0.00 0.00 0.00 81 1022.4
20260502222039 45 0 0.0 0.0 0.00 0.00 0.00 80 1022.3
20260502221549 45 0 0.0 0.0 0.00 0.00 0.00 80 1022.2
20260502221042 45 0 0.0 0.0 0.00 0.00 0.00 80 1022.0
20260502220540 44 0 0.0 0.0 0.00 0.00 0.00 80 1022.0
20260502220050 44 0 0.0 0.0 0.00 0.00 0.00 80 1022.0
20260502215543 44 0 0.0 0.0 0.00 0.00 0.00 80 1021.9
20260502215045 44 0 0.0 1.0 0.00 0.00 0.00 79 1022.0
20260502214553 45 0 0.0 1.0 0.00 0.00 0.00 79 1021.8
20260502214040 45 0 0.0 0.0 0.00 0.00 0.00 79 1021.8
20260502213540 45 0 0.0 1.0 0.00 0.00 0.00 79 1021.8
20260502213048 45 0 0.0 1.0 0.00 0.00 0.00 79 1021.7
20260502212539 45 0 0.0 1.0 0.00 0.00 0.00 79 1021.7
20260502212039 45 0 0.0 0.0 0.00 0.00 0.00 78 1021.6
20260502211551 45 0 0.0 0.0 0.00 0.00 0.00 78 1021.6
20260502211040 45 0 0.0 0.0 0.00 0.00 0.00 77 1021.7
20260502210540 45 0 0.0 0.0 0.00 0.00 0.00 77 1021.7
20260502210049 45 0 0.0 0.0 0.00 0.00 0.00 77 1021.7
20260502205542 45 0 0.0 0.0 0.00 0.00 0.00 77 1021.6
20260502205042 45 0 0.0 0.0 0.00 0.00 0.00 76 1021.6
20260502204552 45 0 0.0 1.0 0.00 0.00 0.00 76 1021.6
20260502204042 45 0 0.0 1.0 0.00 0.00 0.00 76 1021.6
20260502203540 45 0 0.0 0.0 0.00 0.00 0.00 75 1021.6
20260502203108 45 0 0.0 0.0 0.00 0.00 0.00 75 1021.5
20260502202542 45 0 0.0 0.0 0.00 0.00 0.00 75 1021.4
20260502202039 45 0 0.0 0.0 0.00 0.00 0.00 75 1021.2
20260502201547 46 0 0.0 0.0 0.00 0.00 0.00 74 1021.2
20260502201042 46 0 0.0 0.0 0.00 0.00 0.00 74 1021.1
20260502200542 46 0 0.0 0.0 0.00 0.00 0.00 74 1021.0
20260502200052 46 0 0.0 0.0 0.00 0.00 0.00 74 1021.0
20260502195538 46 0 0.0 0.0 0.00 0.00 0.00 73 1021.1
20260502195038 46 0 0.0 0.0 0.00 0.00 0.00 73 1021.0
20260502194554 46 0 0.0 0.0 0.00 0.00 0.00 73 1021.0
20260502194041 47 0 0.0 0.0 0.00 0.00 0.00 72 1020.9
20260502193542 47 0 0.0 0.0 0.00 0.00 0.00 72 1020.9
20260502193051 47 0 0.0 0.0 0.00 0.00 0.00 72 1020.8
20260502192541 47 0 0.0 0.0 0.00 0.00 0.00 72 1020.8
20260502192039 48 0 0.0 0.0 0.00 0.00 0.00 71 1020.8
20260502191556 48 0 0.0 0.0 0.00 0.00 0.00 71 1020.9
20260502191039 49 0 0.0 0.0 0.00 0.00 0.00 71 1020.8
20260502190542 49 0 0.0 0.0 0.00 0.00 0.00 71 1020.8
20260502190050 49 0 0.0 0.0 0.00 0.00 0.00 70 1020.9
20260502185542 49 0 0.0 0.0 0.00 0.00 0.00 70 1020.9
20260502185041 49 0 0.0 0.0 0.00 0.00 0.00 70 1020.9
20260502184549 49 0 0.0 0.0 0.00 0.00 0.00 70 1020.9
20260502184041 49 0 0.0 0.0 0.00 0.00 0.00 70 1020.8
20260502183542 49 0 0.0 0.0 0.00 0.00 0.00 70 1020.8
20260502183049 49 0 0.0 1.0 0.00 0.00 0.00 69 1020.9
20260502182540 50 0 0.0 1.0 0.00 0.00 0.00 69 1020.9
20260502182040 50 0 0.0 1.0 0.00 0.00 0.00 69 1020.8
20260502181606 50 0 0.0 1.0 0.00 0.00 0.00 69 1020.9
20260502181045 50 0 0.0 1.0 0.00 0.00 0.00 69 1021.0
20260502180540 50 0 0.0 0.0 0.00 0.00 0.00 68 1020.8
20260502164042 51 360 1.0 3.0 0.00 0.00 0.00 63 1020.9
20260502163542 51 360 1.0 3.0 0.00 0.00 0.00 62 1020.8
20260502163051 51 360 1.0 3.0 0.00 0.00 0.00 62 1020.8
20260502162540 51 360 1.0 2.0 0.00 0.00 0.00 62 1020.9
20260502162041 51 0 0.0 3.0 0.00 0.00 0.00 61 1020.9
20260502161627 51 0 0.0 3.0 0.00 0.00 0.00 61 1020.9
20260502161040 51 360 1.0 3.0 0.00 0.00 0.00 61 1021.0
20260502160543 51 360 1.0 3.0 0.00 0.00 0.00 60 1021.0
20260502152042 53 360 0.0 2.0 0.00 0.00 0.00 56 1021.1
20260502151601 53 0 1.0 3.0 0.00 0.00 0.00 55 1021.0
20260502151044 53 360 1.0 3.0 0.00 0.00 0.00 55 1021.1
20260502150543 53 360 1.0 3.0 0.00 0.00 0.00 55 1021.0
20260502130546 55 360 1.0 2.0 0.00 0.00 0.00 51 1021.0
20260502123542 56 0 0.0 0.0 0.00 0.00 0.00 49 1020.9
20260502123047 56 0 0.0 2.0 0.00 0.00 0.00 49 1020.9
20260502122543 56 0 0.0 3.0 0.00 0.00 0.00 49 1021.0
20260502122042 56 360 1.0 3.0 0.00 0.00 0.00 48 1021.0
20260502121551 56 360 1.0 3.0 0.00 0.00 0.00 48 1021.0
20260502121042 56 360 1.0 2.0 0.00 0.00 0.00 48 1021.0
20260502120544 56 360 1.0 3.0 0.00 0.00 0.00 48 1020.8
20260502115542 56 360 0.0 2.0 0.00 0.00 0.00 47 1020.8
20260502115041 56 0 0.0 0.0 0.00 0.00 0.00 47 1020.8
20260502114556 57 0 0.0 2.0 0.00 0.00 0.00 47 1020.7
20260502114043 57 0 0.0 2.0 0.00 0.00 0.00 47 1020.6
20260502113543 57 0 0.0 2.0 0.00 0.00 0.00 46 1020.6
20260502113052 57 360 1.0 2.0 0.00 0.00 0.00 46 1020.5
20260502112540 57 360 0.0 2.0 0.00 0.00 0.00 46 1020.5
20260502112041 57 360 1.0 2.0 0.00 0.00 0.00 45 1020.4
20260502111548 58 360 0.0 2.0 0.00 0.00 0.00 45 1020.5
20260502111043 58 0 1.0 2.0 0.00 0.00 0.00 45 1020.4
20260502110542 58 360 1.0 2.0 0.00 0.00 0.00 45 1020.3
20260502110057 58 360 1.0 2.0 0.00 0.00 0.00 44 1020.3
20260502105541 58 360 1.0 2.0 0.00 0.00 0.00 44 1020.4
20260502105041 59 360 0.0 2.0 0.00 0.00 0.00 44 1020.4
20260502104555 59 360 1.0 2.0 0.00 0.00 0.00 44 1020.3
20260502104040 59 360 0.0 2.0 0.00 0.00 0.00 43 1020.2
20260502103543 59 360 1.0 3.0 0.00 0.00 0.00 43 1020.1
20260502103047 60 360 0.0 3.0 0.00 0.00 0.00 43 1020.0
20260502102543 60 360 1.0 3.0 0.00 0.00 0.00 42 1020.0
20260502102043 60 360 1.0 3.0 0.00 0.00 0.00 42 1020.0
20260502101550 60 360 1.0 3.0 0.00 0.00 0.00 42 1019.9
20260502101043 61 360 1.0 3.0 0.00 0.00 0.00 41 1019.9
20260502100543 61 360 1.0 4.0 0.00 0.00 0.00 41 1019.9
20260502091039 63 360 3.0 6.0 0.00 0.00 0.00 36 1019.2
20260502090544 64 360 2.0 6.0 0.00 0.00 0.00 37 1019.2
20260502080105 66 360 4.0 11.0 0.00 0.00 0.00 35 1018.8
20260502071040 67 360 3.0 10.0 0.00 0.00 0.00 33 1018.4
20260502070543 67 360 4.0 10.0 0.00 0.00 0.00 33 1018.4
20260502070056 67 360 4.0 14.0 0.00 0.00 0.00 33 1018.3
20260502065540 67 360 3.0 14.0 0.00 0.00 0.00 34 1018.3
20260502065043 67 360 6.0 14.0 0.00 0.00 0.00 34 1018.3
20260502064651 67 360 3.0 11.0 0.00 0.00 0.00 34 1018.2
20260502064040 67 360 6.0 12.0 0.00 0.00 0.00 34 1018.2
20260502063539 68 360 6.0 12.0 0.00 0.00 0.00 35 1018.1
20260502063048 67 360 6.0 11.0 0.00 0.00 0.00 35 1018.2
20260502062540 66 360 5.0 11.0 0.00 0.00 0.00 36 1018.2
20260502062040 67 360 4.0 11.0 0.00 0.00 0.00 34 1018.2
20260502061550 68 360 4.0 11.0 0.00 0.00 0.00 34 1018.2
20260502061040 68 360 4.0 11.0 0.00 0.00 0.00 34 1018.2
20260502060540 67 360 5.0 10.0 0.00 0.00 0.00 35 1018.2
20260502060051 67 360 3.0 10.0 0.00 0.00 0.00 36 1018.3
20260502055540 67 360 6.0 10.0 0.00 0.00 0.00 35 1018.3
20260502055040 69 360 5.0 12.0 0.00 0.00 0.00 33 1018.3
20260502054557 68 360 4.0 12.0 0.00 0.00 0.00 33 1018.2
20260502054040 69 360 4.0 11.0 0.00 0.00 0.00 34 1018.2
20260502053539 68 360 5.0 11.0 0.00 0.00 0.00 34 1018.1
20260502053054 68 360 6.0 11.0 0.00 0.00 0.00 34 1018.3
20260502052540 68 360 5.0 10.0 0.00 0.00 0.00 32 1018.2
20260502052044 68 360 5.0 11.0 0.00 0.00 0.00 35 1018.2
20260502051627 68 360 4.0 12.0 0.00 0.00 0.00 35 1018.2
20260502051040 69 360 4.0 12.0 0.00 0.00 0.00 35 1018.2
20260502050543 68 360 4.0 10.0 0.00 0.00 0.00 34 1018.1
20260502050056 68 360 5.0 13.0 0.00 0.00 0.00 35 1018.2
20260502045540 67 360 4.0 13.0 0.00 0.00 0.00 35 1018.2
20260502045042 67 360 5.0 12.0 0.00 0.00 0.00 35 1018.2